Home   Weather   Oberpullendorf   Past weeks

Flag for Austria Past Weather in Oberpullendorf, Burgenland, Austria — Yesterday and Last 2 Weeks

Now
54 °F

Sunny.


Feels Like: 54 °F
Forecast: 39 / 49 °F
Wind: 2 mph from North

Location: Eisenstadt

Current Time: Mar 25, 2017 at 2:36:43 pm

Latest Report: Mar 25, 2017 at 1:00 pm


Visibility: 9 mi

Pressure: 30.30 "Hg

Humidity: 54%

Dew Point: 37 °F

Location of OberpullendorfLocation

Past Weather in Oberpullendorf — Graph

°F

Oberpullendorf Temperature Yesterday

Maximum temperature yesterday: 53 °F (at 4:00 pm)
Minimum temperature yesterday: 44 °F (at 11:00 pm)
Average temperature yesterday: 49 °F

High & Low Weather Summary for the Past Weeks

 TemperatureHumidityPressure
High67 °F (Mar 17, 3:00 pm)95% (Mar 18, 12:00 pm)30.40 "Hg (Mar 18, 12:00 pm)
Low33 °F (Mar 13, 5:00 am)31% (Mar 17, 2:00 pm)29.67 "Hg (Mar 18, 4:00 pm)
Average48 °F68%30.08 "Hg
* Reported Mar 10 1:00 pm — Mar 25 1:00 pm, Oberpullendorf, Weather by CustomWeather, © 2017

Note: Actual official high and low records may vary slightly from our data, if they occured in-between our weather recording intervals... More about our weather records

Advertising

Oberpullendorf Weather History for the Previous 24 Hours

Scroll right to see more
 ConditionsComfort  
Time TempWeatherWind HumidityBarometerVisibility
1:00 pm
Sat, Mar 25
54 °FSunny.2 mph54%30.30 "Hg9 mi
12:00 pm53 °FCool.2 mph58%30.32 "HgN/A
11:00 am50 °FCool.3 mph59%30.36 "HgN/A
10:00 am48 °FSunny.3 mph61%30.37 "Hg9 mi
9:00 am45 °FCool.6 mph66%30.38 "HgN/A
8:00 am44 °FQuite cool.5 mph66%30.38 "HgN/A
7:00 am41 °FSunny.2 mph74%30.39 "Hg9 mi
6:00 am37 °FSunny.No wind81%30.38 "Hg9 mi
5:00 am39 °FChilly.1 mph77%30.37 "HgN/A
4:00 am42 °FQuite cool.1 mph70%30.38 "HgN/A
3:00 am42 °FQuite cool.2 mph69%30.37 "HgN/A
2:00 am43 °FQuite cool.2 mph69%30.38 "HgN/A
1:00 am44 °FQuite cool.3 mph66%30.38 "HgN/A
12:00 am44 °FQuite cool.7 mph68%30.38 "HgN/A
11:00 pm
Fri, Mar 24
44 °FQuite cool.2 mph69%30.40 "HgN/A
10:00 pm45 °FPassing clouds.1 mph70%30.40 "Hg6 mi
9:00 pm46 °FCool.2 mph67%30.38 "HgN/A
8:00 pm48 °FCool.1 mph67%30.35 "HgN/A
7:00 pm50 °FOvercast.2 mph72%30.32 "Hg6 mi
6:00 pm52 °FCool.2 mph67%30.31 "HgN/A
5:00 pm53 °FCool.3 mph63%30.30 "HgN/A
4:00 pm53 °FOvercast.2 mph63%30.30 "Hg6 mi
3:00 pm52 °FCool.6 mph68%30.29 "HgN/A
2:00 pm52 °FCool.3 mph69%30.30 "HgN/A
Weather by CustomWeather, © 2017

See weather overviewHow to use our weather pages